CAPE
0 1 12 0 0 0 0 4 10 0 0 0 0 0 0 143 391 875 1000 1151 1375 1502 1465 1406 1211 798 677 780 989 1101 1062 1106 975 756 541 630 820 1167 885 269 18 0 0 0
0 4 0 0 0 0 0 14 38 1 0 0 0 0 19 234 420 676 929 1177 1304 1547 1557 1478 1348 1026 820 835 913 1004 1123 1274 1346 920 1080 1170 1032 685 303 46 26 10 0 4
0 0 0 0 0 1 1 15 1 0 0 0 0 0 0 41 465 626 736 909 1060 1112 1084 1446 1622 1367 1138 1050 974 1021 1170 1274 1420 1215 1140 976 909 419 143 58 18 2 8 8
0 0 0 0 0 3 47 0 0 0 0 8 0 30 13 0 49 70 311 245 170 148 382 933 1145 1385 1458 1229 981 964 1144 1326 1417 1294 957 1058 732 370 249 77 0 0 0 8
0 0 0 0 0 0 0 0 0 0 0 3 0 0 79 6 36 18 27 44 62 62 209 400 830 998 1048 981 966 1028 1365 1482 1318 1024 953 697 379 175 17 0 1 0 0 6
0 0 0 0 0 0 0 0 0 0 0 43 0 0 64 63 73 78 20 30 54 85 143 223 851 1131 1148 1085 1099 1259 1591 1623 1353 1053 663 530 350 111 33 29 0 0 0 0
0 0 0 0 3 7 2 0 26 18 5 7 0 0 8 0 2 7 8 33 63 82 106 141 206 298 782 948 1066 1102 1301 1479 1184 503 269 113 66 109 70 0 0 0 0 0
1 1 0 0 2 33 1 29 9 9 1 0 0 4 55 0 0 0 0 12 45 178 108 122 223 472 476 838 1065 1005 979 852 478 187 79 63 115 12 0 0 0 5 7 9
0 5 0 0 0 11 67 60 11 47 8 20 4 7 8 0 0 0 0 2 35 264 206 290 319 700 760 724 764 849 734 529 245 36 60 73 40 20 17 10 8 6 12 20
43 16 1 0 5 10 90 21 94 104 13 6 29 9 40 0 4 6 19 33 58 296 215 291 323 661 859 589 536 427 254 133 50 13 8 9 22 28 19 11 17 21 26 47
224 376 117 31 90 134 89 128 67 76 50 6 15 22 0 0 0 0 46 97 81 94 140 171 180 464 545 309 49 57 70 16 2 7 14 14 2 19 2 10 11 26 34 47
184 388 176 171 46 17 34 91 77 120 53 41 1 12 0 0 0 24 81 41 70 94 65 27 53 172 143 159 83 19 44 7 0 0 1 0 23 0 10 11 21 29 38 58
173 361 254 177 106 51 127 31 43 71 64 41 41 32 10 4 2 17 28 46 35 14 20 32 51 16 41 60 129 17 8 1 0 0 0 4 0 10 6 20 26 32 64 73
181 461 260 184 206 209 148 47 12 36 71 34 36 19 1 15 0 30 75 21 1 3 8 17 47 11 89 72 39 34 12 9 0 0 1 0 4 3 16 26 32 68 66 27
969 356 214 84 44 32 67 48 0 0 8 4 4 18 54 47 23 21 13 7 18 5 7 9 26 65 100 181 269 137 5 0 0 0 0 0 0 9 22 14 53 56 8 13
433 511 324 225 48 53 43 6 0 0 0 2 19 50 52 54 28 27 34 26 47 68 47 57 145 253 294 294 168 5 0 0 0 0 0 0 3 12 18 57 28 8 5 24
506 545 373 281 66 61 37 43 16 3 26 52 46 121 148 131 84 133 152 79 81 90 122 162 132 109 212 106 0 0 0 0 0 0 0 0 8 17 38 3 14 64 79 115
653 583 230 137 193 40 66 36 61 121 123 124 100 196 166 134 149 213 228 313 302 288 207 123 50 67 264 38 0 0 0 0 0 0 0 4 20 17 4 35 78 54 85 55
553 649 308 78 86 78 36 123 167 155 150 143 239 294 157 166 253 375 124 67 82 58 26 3 0 0 122 1 0 0 0 0 0 0 2 17 11 6 39 30 25 7 8 8
460 605 278 204 151 141 174 271 220 232 171 327 347 387 359 343 433 510 128 52 41 0 0 0 0 0 72 0 0 0 0 0 0 1 12 10 15 41 7 44 32 37 6 11
450 462 244 171 213 122 258 189 107 193 381 393 448 576 526 530 549 187 66 21 0 0 0 0 0 0 0 0 0 0 0 0 0 7 14 20 31 18 50 56 63 14 32 104
168 173 110 84 16 1 148 140 210 712 532 529 522 575 552 329 117 90 10 0 0 0 0 0 0 0 0 0 0 2 0 0 5 11 18 20 24 10 42 50 6 22 41 112
16 0 39 0 0 504 362 684 515 394 579 551 507 372 205 140 41 1 0 0 0 0 0 0 0 0 0 0 0 1 0 1 17 7 14 16 10 30 24 52 76 11 50 107
46 95 0 67 0 154 408 508 467 485 469 377 392 220 51 8 0 0 0 0 0 0 0 0 0 0 0 0 0 0 0 7 8 6 14 12 34 36 42 16 51 75 74 103
97 215 1 18 0 20 191 523 589 567 383 297 114 27 8 0 0 0 0 0 0 0 0 0 0 0 0 0 0 0 2 16 13 4 11 18 25 45 27 41 24 48 6 0
24 1 34 0 0 2 3 383 564 521 422 264 6 0 7 0 0 0 0 0 0 0 0 0 0 0 0 0 0 0 8 10 6 6 12 4 23 31 32 52 57 0 0 0
CIN
0 0 0 0 0 0 0 0 0 0 0 0 0 0 0 -38 -55 -60 -57 -34 -20 -17 -32 -82 -109 -116 -117 -117 -108 -86 -70 -69 -51 -26 -15 -5 -4 -1 -4 -63 -133 0 0 0
0 0 0 0 0 0 0 -1 -1 -3 0 0 0 0 -23 -47 -55 -63 -53 -25 -22 -16 -33 -55 -77 -99 -111 -101 -104 -90 -73 -56 -40 -17 -4 -17 -19 -23 -55 -87 -108 -121 0 0
0 0 0 0 0 0 -1 -5 -1 0 0 0 0 0 0 -32 -35 -59 -54 -42 -30 -12 -5 -9 -21 -56 -73 -90 -97 -89 -71 -46 -32 -26 -14 -35 -35 -68 -37 -5 -22 0 0 0
0 0 0 0 0 -7 0 0 0 0 0 -1 0 0 -8 -2 -20 -29 -17 -15 -12 -19 -12 -19 -26 -28 -30 -51 -60 -71 -68 -49 -40 -54 -37 -28 -39 -35 -27 -50 0 0 0 0
0 0 0 0 0 0 -1 0 0 0 0 0 0 0 -20 -21 -3 -11 -11 -14 -13 -14 -4 -10 -13 -22 -21 -36 -30 -48 -75 -74 -76 -79 -65 -56 -47 -28 -29 0 -124 0 0 0
0 0 0 0 0 0 0 0 0 0 0 0 0 0 0 0 -1 0 -13 -12 -4 -2 -5 -14 -16 -18 -14 -23 -26 -31 -52 -58 -70 -82 -99 -93 -81 -91 -112 -115 -4 0 0 0
0 0 0 0 0 -2 0 0 0 -1 0 0 0 0 0 0 -3 -4 0 0 0 -1 -5 -10 -14 -7 -6 -11 -23 -33 -52 -47 -70 -90 -93 -124 -147 -126 -84 0 0 0 0 0
0 0 0 0 -1 0 0 -7 0 0 0 0 0 0 0 0 0 0 0 -10 -1 -10 -2 -11 -11 -10 -5 -20 -32 -37 -36 -49 -77 -80 -124 -164 -124 -70 0 0 0 0 0 0
0 0 0 0 0 -6 -3 -1 -15 -2 -1 0 -1 0 0 0 0 0 0 -1 -2 -15 -12 -9 -14 -14 -14 -30 -36 -32 -37 -50 -73 -146 -159 -140 -154 -107 -99 -89 0 0 0 0
-3 -1 -2 0 -10 -41 -7 -12 0 0 0 0 0 0 0 0 0 0 -1 -1 -3 -17 -12 -11 -15 -20 -30 -31 -39 -61 -66 -64 -100 -119 -95 -114 -120 -112 -98 -64 0 0 0 0
-12 -5 -5 -17 -3 0 -5 -1 -4 -4 -2 0 0 0 0 0 0 0 0 -2 -8 -15 -11 -10 -17 -29 -28 -34 -29 -56 -65 -85 -42 -101 -91 -115 -202 -114 -20 0 0 0 0 0
-32 -4 0 0 -38 -49 -14 -6 -6 0 -1 -1 0 0 0 0 0 -9 -8 -14 -12 -29 -22 -36 -31 -28 -24 -18 -22 -45 -94 -89 0 -7 -115 -12 -112 -8 0 0 0 0 0 0
-52 -12 0 -6 -19 -40 -5 -18 -26 -22 -12 0 0 0 -4 -9 -1 -9 -10 -6 -19 -34 -31 -27 -17 -18 -9 -13 -37 -86 -78 -19 0 0 0 -130 0 0 0 0 0 0 0 0
-71 -34 -2 0 -7 -4 -6 -15 -7 -10 -1 0 0 0 0 0 0 -1 -7 -15 -3 -13 -20 -13 -13 -6 -1 -34 -71 -91 -83 -123 -105 0 -24 0 0 0 0 0 0 0 0 -2
-51 -7 -11 -23 -23 -19 -9 -5 0 0 0 0 0 0 0 -4 -12 -13 -25 -19 -8 -7 -17 -17 -18 -11 -8 -17 -24 -48 -104 0 0 0 0 0 0 0 0 0 0 0 -5 0
-94 -17 -15 -11 -29 -20 -7 -7 -1 0 0 -1 -1 0 -3 -4 -2 -6 -13 -8 -1 -2 -13 -11 -7 -11 -17 -29 -46 -65 0 0 0 0 0 0 0 0 0 0 -1 -1 -9 -4
-24 -20 -11 -1 -15 -5 -1 -8 0 -1 -1 0 -1 -1 -7 0 -6 -11 -9 -6 -6 -11 -10 -14 -21 -23 -34 -67 0 0 0 0 0 0 0 0 0 0 -1 0 -9 0 0 -1
-11 -6 -2 -1 -4 -1 -7 -16 -6 -3 -4 0 -1 -4 -9 -7 -16 -14 -13 -10 -18 -19 -21 -22 -35 -46 -33 -76 0 0 0 0 0 0 0 0 0 0 0 0 0 -1 0 -3
-29 -3 -1 0 0 -3 -1 -2 -2 -1 0 -1 -2 -1 -13 -9 -9 -17 -49 -65 -57 -50 -48 -11 0 -21 -43 -10 0 0 0 0 0 0 0 0 0 0 -2 -2 -6 -1 -1 0
-38 -15 0 0 0 0 -1 -10 -23 -12 0 -11 -13 -10 -8 -8 0 -8 -76 -70 -66 -14 0 0 0 0 -52 0 0 0 0 0 0 0 0 -1 0 -1 -1 0 -1 -2 -8 -14
-1 -1 0 -1 0 0 -7 -24 -35 -1 -1 -22 -17 -15 -13 -2 -19 -77 -84 -88 0 0 0 0 0 0 0 0 0 0 0 0 0 0 0 0 0 0 0 0 0 -2 -1 0
0 0 0 -1 0 0 -29 -27 -1 -29 -49 -29 -26 -26 -26 -49 -88 -67 -97 0 0 0 0 0 0 0 0 0 0 0 0 0 0 -1 0 0 0 0 0 0 -1 -3 0 0
-1 0 -1 0 0 -29 -37 -20 -49 -72 -30 -34 -33 -50 -54 -69 -67 -26 0 0 0 0 0 0 0 0 0 0 0 0 0 0 0 -2 0 0 0 0 0 0 0 -17 -1 0
-12 -47 0 -7 0 -5 -11 -21 -36 -45 -37 -46 -47 -63 -75 -76 -10 0 0 0 0 0 0 0 0 0 0 0 0 0 0 0 -1 -1 0 0 0 -1 0 -1 0 0 0 0
-18 -14 0 -3 0 -4 -9 -14 -18 -32 -48 -46 -63 -80 -124 0 0 0 0 0 0 0 0 0 0 0 0 0 0 0 0 0 0 0 0 0 0 0 0 0 -9 0 0 0
-16 -2 0 0 0 -1 -1 -4 -25 -28 -26 -27 -56 -30 -126 0 0 0 0 0 0 0 0 0 0 0 0 0 0 0 0 0 -3 0 0 0 0 0 0 0 0 0 0 0
Wind_Speed
5 11 3 8 3 5 3 3 2 5 3 4 3 6 5 6 3 3 5 6 6 7 7 7 8 4 4 4 5 6 6 6 5 5 5 5 5 4 4 4 5 6 6 8
8 9 5 3 5 3 1 3 5 2 4 9 2 6 2 6 4 1 1 4 4 7 7 9 9 6 5 3 4 5 7 7 7 5 4 4 5 5 5 5 5 6 7 9
7 11 4 6 7 4 5 9 8 9 1 2 6 11 1 5 4 4 3 2 3 4 6 7 8 9 9 7 5 5 6 6 7 6 3 4 4 5 8 4 6 4 8 9
3 3 7 7 5 6 2 6 7 8 9 5 3 3 7 3 6 6 9 8 7 6 6 2 3 4 6 7 5 4 4 5 5 3 4 4 7 7 6 7 6 8 8 9
6 9 9 4 8 4 8 5 6 5 4 8 9 10 10 2 5 6 6 6 5 5 3 1 1 1 1 1 4 3 3 5 4 4 4 5 5 7 6 7 8 10 8 10
10 3 3 9 5 3 3 6 3 4 4 6 7 8 12 4 2 4 4 7 5 5 2 0 1 1 1 1 0 3 4 3 3 4 3 4 5 7 8 9 9 9 10 9
9 6 8 2 5 7 4 10 2 3 3 4 6 8 9 4 1 6 6 7 7 4 4 3 2 2 1 0 1 2 1 2 2 4 4 4 5 6 9 9 9 12 10 10
9 10 7 1 5 6 6 8 7 8 7 10 5 4 8 3 4 7 10 10 9 2 4 2 0 1 2 1 1 1 1 3 4 4 3 4 5 7 8 9 10 10 10 10
6 3 7 2 2 5 4 4 3 6 5 7 5 2 11 1 5 9 11 11 9 5 4 3 2 2 3 1 1 4 3 4 4 2 3 4 5 7 9 10 10 9 11 10
2 3 3 7 5 8 5 4 4 3 7 9 9 5 4 11 9 10 9 9 6 8 4 4 3 2 4 3 2 4 5 5 2 4 4 4 5 8 9 10 12 12 10 11
3 4 8 6 5 3 6 6 1 5 4 9 8 10 10 9 12 13 13 13 5 4 3 3 2 3 5 4 6 6 6 5 4 4 6 5 7 8 9 11 11 10 10 10
3 4 4 2 4 1 3 3 3 6 8 4 7 7 5 11 12 11 12 7 3 4 4 3 5 3 4 6 6 5 5 6 4 4 2 3 7 9 10 11 11 10 10 11
5 3 4 8 8 5 5 3 1 1 4 9 8 7 14 11 8 8 7 7 4 3 2 5 5 4 6 6 6 7 6 6 3 6 5 6 8 10 11 10 10 10 10 12
2 2 6 8 9 5 4 6 3 5 6 9 12 13 10 9 9 8 8 6 6 6 7 8 7 6 9 7 8 9 8 6 2 3 5 8 10 11 10 10 9 9 12 10
3 2 2 3 4 1 1 3 4 7 9 8 13 13 9 9 8 7 6 5 5 7 8 9 9 10 12 13 12 10 6 1 4 6 9 10 11 10 10 9 9 11 8 7
0 2 3 4 2 2 5 3 5 5 8 8 12 14 7 6 6 8 8 8 10 11 11 10 10 12 13 13 12 10 4 4 5 7 10 11 10 10 10 9 11 9 8 8
2 5 5 4 1 4 9 4 5 6 8 8 13 13 9 5 7 8 7 8 9 9 10 11 12 12 12 11 8 7 4 3 6 9 10 10 10 11 11 10 8 10 10 10
5 4 2 4 3 11 5 2 4 8 12 11 9 7 4 3 5 8 11 11 11 12 12 12 12 13 11 10 7 4 5 5 7 9 10 10 12 12 10 10 12 11 9 9
2 4 2 6 8 6 11 9 5 8 11 7 7 3 1 1 5 8 10 10 10 10 11 12 14 13 10 9 6 4 5 6 8 9 10 11 10 10 11 11 10 8 7 6
4 3 6 4 9 12 9 5 1 2 10 5 1 1 3 6 9 10 10 9 10 12 13 14 14 12 10 6 4 4 6 8 9 9 9 9 8 10 9 9 9 8 5 2
5 5 9 9 8 9 6 3 2 9 5 4 3 4 3 4 7 5 5 7 10 10 14 15 14 10 7 4 3 5 7 8 8 7 9 7 10 8 9 9 8 6 5 6
7 5 6 3 9 12 4 3 5 7 3 3 3 4 5 6 4 3 6 8 10 13 16 15 12 10 6 4 3 6 8 7 7 8 6 7 9 7 8 8 7 5 6 7
5 3 5 4 6 3 1 5 3 1 3 2 2 5 5 3 2 5 6 8 11 14 14 13 12 7 4 4 6 7 6 6 7 6 6 6 6 8 7 6 7 5 3 7
5 3 5 2 5 4 5 6 7 3 1 4 5 4 2 2 4 5 7 9 11 13 13 13 12 7 5 4 6 6 6 6 6 5 5 5 6 6 7 7 5 5 5 4
5 7 6 9 11 6 8 5 3 5 5 6 5 4 3 2 3 7 8 9 11 12 12 12 9 5 5 3 6 6 5 6 4 4 5 4 3 5 3 6 7 5 6 6
6 8 7 9 9 5 4 2 6 8 8 6 7 5 2 3 6 8 9 9 10 11 12 10 6 4 4 4 5 5 5 6 3 3 4 5 3 3 4 2 6 5 4 5
Wind_Direction
176 243 297 35 31 30 44 29 33 104 78 264 314 286 335 350 285 183 211 204 198 210 193 184 203 172 187 199 202 212 210 197 221 223 245 238 271 262 273 273 282 287 293 295
203 233 84 122 117 146 303 305 43 157 43 280 290 274 329 22 44 336 213 176 191 198 200 211 210 208 236 254 229 219 231 216 224 232 260 322 328 316 314 316 315 298 291 284
297 77 123 175 171 194 51 351 344 329 347 205 286 233 174 63 95 133 179 179 181 201 221 214 212 213 227 228 231 224 227 230 234 266 247 249 257 229 235 237 285 323 289 301
37 99 178 190 104 314 333 5 313 299 274 342 338 352 125 61 107 109 136 143 152 176 185 170 230 234 222 244 204 237 226 220 211 225 239 265 295 298 339 285 323 310 318 318
89 144 170 173 55 340 48 352 342 307 258 225 56 273 105 167 155 130 137 154 179 190 100 201 161 109 289 179 220 164 175 184 168 214 274 273 288 314 323 317 316 306 297 313
104 94 333 84 96 50 131 266 224 217 216 213 38 310 94 82 352 158 183 211 213 220 171 223 54 329 240 175 192 158 164 166 202 240 247 274 299 322 324 330 311 321 325 322
157 125 116 179 173 158 302 342 292 287 331 11 23 267 48 25 219 286 274 235 227 180 231 208 200 236 91 279 13 39 81 242 228 237 252 297 324 319 301 324 323 328 319 324
190 170 181 95 341 12 41 332 13 336 350 343 118 11 78 29 296 277 269 269 276 230 259 203 131 293 288 100 104 182 200 232 219 248 317 331 320 319 313 337 329 315 317 319
211 137 119 64 131 310 103 21 13 305 188 266 39 65 225 213 280 254 260 260 253 244 248 209 163 231 263 268 311 291 261 239 249 311 313 313 330 334 329 321 316 313 313 323
140 225 212 138 161 74 339 103 289 282 336 324 347 299 315 347 336 331 281 273 263 245 233 190 212 218 247 248 256 251 253 255 280 285 298 348 347 316 322 316 315 313 316 305
194 272 136 192 218 352 172 183 64 276 330 323 318 330 38 357 339 325 319 329 297 241 266 213 243 219 237 244 267 231 247 244 258 310 340 348 317 326 322 318 316 310 308 318
136 266 239 68 86 348 322 17 329 331 342 332 281 304 48 346 330 332 331 336 62 8 14 328 289 256 237 277 287 279 278 286 294 303 244 297 321 319 320 321 310 310 316 312
176 198 198 172 174 181 237 137 97 7 272 299 310 296 8 351 358 21 6 24 49 340 298 312 302 256 314 319 318 293 286 279 290 207 294 314 324 323 329 318 316 318 316 324
268 169 275 294 39 57 176 194 221 273 286 329 308 344 335 12 358 18 13 359 341 359 8 344 311 305 345 349 304 306 286 297 245 320 295 332 335 335 325 323 326 326 343 334
276 194 203 89 93 91 320 271 236 274 318 304 331 318 346 6 353 7 352 5 354 7 5 1 343 340 327 328 329 315 307 300 306 311 339 345 340 335 329 338 346 348 335 318
43 155 180 159 144 265 281 291 279 274 311 299 313 303 37 10 2 32 31 11 5 13 11 7 352 349 349 353 344 345 345 333 325 345 347 346 349 338 349 358 353 331 319 308
182 149 211 268 140 267 258 293 297 303 292 326 309 348 339 353 41 27 13 12 10 8 6 2 358 351 359 353 354 7 36 35 351 354 352 356 350 354 7 352 324 323 317 326
155 170 244 307 203 260 53 72 286 292 296 302 292 291 344 34 74 48 33 22 23 12 3 359 353 347 352 348 14 40 48 11 5 2 3 3 5 7 350 330 1 349 348 352
309 240 184 274 275 312 273 181 226 271 290 320 305 314 308 341 201 64 49 33 25 14 5 353 347 349 346 356 12 29 34 3 7 16 11 17 15 357 348 4 353 346 343 342
130 243 270 267 281 285 332 62 32 259 277 70 334 316 345 319 282 69 35 26 19 10 358 348 337 350 350 6 7 35 10 19 19 21 17 28 4 12 1 9 1 4 357 358
206 242 266 286 287 294 37 45 166 258 342 66 43 40 28 359 32 47 23 20 14 356 352 349 353 356 354 1 28 26 25 28 25 21 33 12 21 11 20 8 24 26 12 48
261 262 263 315 284 283 57 145 266 21 50 69 67 59 78 83 73 30 14 7 359 353 358 357 352 359 9 27 10 33 35 22 28 30 31 23 33 24 33 21 44 33 33 61
244 301 326 258 315 61 17 278 24 318 356 91 121 103 94 89 25 11 355 359 351 357 354 353 346 3 36 53 20 35 29 20 27 38 38 24 38 39 28 33 40 41 45 78
169 178 250 266 264 280 282 243 232 202 239 134 122 114 121 51 7 342 353 355 348 356 353 348 349 16 79 75 50 41 28 17 33 58 43 17 38 26 24 36 22 25 29 76
11 159 253 258 265 257 242 237 217 175 167 151 130 126 107 16 350 344 348 353 347 351 354 354 4 37 92 82 54 38 31 23 32 37 40 25 53 54 21 64 24 34 61 357
186 255 237 278 327 264 320 132 170 171 172 152 147 145 101 341 353 346 347 344 348 341 356 354 27 82 98 63 57 47 29 26 7 20 46 21 14 41 37 35 115 83 39 360